User: anonymous   Login
Location: Bacea
(45.9500°N, 22.6667°E)
Time: 16:22:09
(UTC+00:00)
Language:

BREEZE-M DEB (TANK) - Orbit

View from above orbital plane
View from above orbital plane
View from above satellite
View from above satellite

Ground track
Ground track

The orbit data is extracted from the following two-line orbital elements,

1 39362U 13058C   22022.83926454  .00001381  00000-0  46400-3 0  9999
2 39362  49.5275 128.9043 5177089 189.5103 154.7816  5.27353836157926
Epoch (UTC): 22 January 2022 20:08:32
Eccentricity: 0.5177089
inclination: 49.5275°
perigee height: 346 km
apogee height: 14782 km
right ascension of ascending node: 128.9043°
argument of perigee: 189.5103°
revolutions per day: 5.27353836
mean anomaly at epoch: 154.7816°
orbit number at epoch: 15792

The dashed part of the orbit path shows where the satellite is in the earth's shadow,  

DLR